Back to catalog

YAOGAN 7

AliveMilitarySSO
NORAD 36110·PAYLOAD·🇨🇳 China

Launched Dec 9, 2009 from Jiuquan Satellite Launch Center

Loading…

Next Passes (next 24 hours)

TLE

FreshSource: Space-Track

Epoch: Sep 14, 2026, 15:40 UTC

1 36110U 09069A   26257.65313116  .00000309  00000-0  49823-4 0  9995
2 36110  97.9918 142.9045 0025831 109.4288 250.9717 14.78078146902842

Track YAOGAN 7 in real time with AllMySat

Download on the App Store